Regional Weather Roundup
Issued by NWS Midland/Odessa, TX

Skip options and go directly to product.
Home | Oldest Version | Previous Version | Current Version | All | Text Only | Save Text | Print | Product List | Glossary Off

Skip product version selection by date and time.   

129
ASUS44 KMAF 270210
RWRMAF
MIDLAND AREA WEATHER ROUNDUP
NATIONAL WEATHER SERVICE MIDLAND TX
900 PM CDT THU MAR 26 2015

...IN SOUTHWEST TEXAS AND SOUTHEAST NEW MEXICO...

CITY           SKY/WX    TMP DP  RH WIND       PRES   REMARKS
ALPINE         CLEAR     49  32  52 E3        30.31R
ANDREWS        FAIR      53  23  31 CALM      30.21R
ARTESIA        CLEAR     52  23  32 S8        30.21R
BIG SPRING     CLEAR     56  24  28 SE3       30.21R
CARLSBAD       CLEAR     53  29  39 S8        30.20R
DRYDEN           N/A     57  38  48 NW7       30.20R
FORT STOCKTON  CLEAR     54  29  38 CALM      30.23R
GUAD PASS      CLEAR     51  24  34 SW10      30.27R
HOBBS          CLEAR     54  18  24 SW7       30.22R
MARFA          CLEAR     48  32  53 E6        30.28R
MIDLAND AIRPK  CLEAR     59  23  25 SW5       30.21S
MIDLAND INTL   CLEAR     58  27  30 CALM      30.20S
ODESSA         CLEAR     56  25  30 SE5       30.22R
PECOS          CLEAR     56  30  36 S3        30.23R
PRESIDIO       FAIR      66  38  35 N6        30.18R
SEMINOLE       CLEAR     53  21  28 CALM      30.22R
SNYDER         CLEAR     57  22  25 SE5       30.19R
WINK           CLEAR     56  24  29 SW7       30.20R
$$
...OTHER STATIONS IN TEXAS...

CITY           SKY/WX    TMP DP  RH WIND       PRES   REMARKS
ABILENE        CLEAR     56  27  32 NE6       30.18S
AMARILLO       PTCLDY    56  17  21 W9        30.15R
AUSTIN         PTCLDY    54  39  57 N6        30.12R
BROWNSVILLE    PTCLDY    67  54  63 N16G24    30.05R
CORPUS CHRISTI CLOUDY    63  54  72 NW6       30.10R
DALLAS FTW     CLEAR     56  30  37 N10       30.13R
DEL RIO        CLEAR     62  39  42 N5        30.15R
EL PASO        CLEAR     63  26  24 E3        30.20R
HOUSTON INT    MOCLDY    61  48  62 N8        30.04S
LUBBOCK        PTCLDY    56  18  22 W3        30.18R
SAN ANGELO     CLEAR     56  27  32 E5        30.18R
SAN ANTONIO    PTCLDY    62  37  39 N9        30.13R
WACO           CLEAR     55  34  45 N7        30.14R
WICHITA FALLS  NOT AVBL
$$
...OTHER LOCATIONS IN NEW MEXICO...

CITY           SKY/WX    TMP DP  RH WIND       PRES   REMARKS
ALAMAGORDO     PTCLDY    57  18  21 NE6       30.20S
ALBUQUERQUE    PTCLDY    58  18  21 S6        30.21R
CANNON AFB     PTCLDY    53  18  25 SW6       30.19R
CLOVIS         PTCLDY    48  19  32 SW7       30.19R
HOLLOMAN AFB   PTCLDY    62  22  21 CALM      30.19R
ROSWELL        CLEAR     55  21  26 S9        30.20R
RUIDOSO        CLEAR     50  14  23 W5        30.30R
SANTA FE       CLEAR     53   8  16 W9        30.20S
TRUTH OR CONSE CLEAR     62  14  15 SW3       30.20R
TUCUMCARI      CLEAR     54  18  24 S6        30.14R
$$

USA.gov is the U.S. government's official web portal to all federal, state and local government web resources and services.